Time,TemperatureF,DewpointF,PressureIn,WindDirection,WindDirectionDegrees,WindSpeedMPH,WindSpeedGustMPH,Humidity,HourlyPrecipIn,Conditions,Clouds,dailyrainin,SolarRadiationWatts/m^2,SoftwareType,DateUTC
2017-06-27 00:00:00,58.4,57.0,29.98,South,181,1.0,5.0,95,0.00,,,0.04,0,weatherlink.com 1.10,2017-06-27 04:00:00,
2017-06-27 00:14:00,58.3,57.0,29.96,West,272,2.0,4.0,95,0.00,,,0.00,0,weatherlink.com 1.10,2017-06-27 04:14:00,
2017-06-27 00:29:00,58.3,57.0,29.96,NW,315,0.0,2.0,95,0.01,,,0.01,0,weatherlink.com 1.10,2017-06-27 04:29:00,
2017-06-27 00:44:00,58.5,57.0,29.98,SSW,205,0.0,4.0,96,0.01,,,0.01,0,weatherlink.com 1.10,2017-06-27 04:44:00,
2017-06-27 00:59:00,58.1,57.0,29.98,SW,235,2.0,3.0,96,0.01,,,0.01,0,weatherlink.com 1.10,2017-06-27 04:59:00,
2017-06-27 01:14:00,57.9,57.0,29.98,South,181,0.0,1.0,96,0.01,,,0.01,0,weatherlink.com 1.10,2017-06-27 05:14:00,
2017-06-27 01:30:00,57.6,57.0,29.97,South,181,0.0,1.0,96,0.01,,,0.02,0,weatherlink.com 1.10,2017-06-27 05:30:00,
2017-06-27 01:44:00,57.9,57.0,29.97,South,181,0.0,1.0,96,0.01,,,0.02,0,weatherlink.com 1.10,2017-06-27 05:44:00,
2017-06-27 01:59:00,58.0,57.0,29.96,SW,219,3.0,3.0,96,0.01,,,0.02,0,weatherlink.com 1.10,2017-06-27 05:59:00,
2017-06-27 02:14:00,57.6,57.0,29.96,SW,219,0.0,2.0,96,0.01,,,0.02,0,weatherlink.com 1.10,2017-06-27 06:14:00,
2017-06-27 02:29:00,57.3,56.0,29.96,SW,219,1.0,2.0,96,0.00,,,0.02,0,weatherlink.com 1.10,2017-06-27 06:29:00,
2017-06-27 02:44:00,57.3,56.0,29.96,SW,219,1.0,2.0,96,0.00,,,0.02,0,weatherlink.com 1.10,2017-06-27 06:44:00,
2017-06-27 02:59:00,57.1,56.0,29.95,NW,307,1.0,2.0,96,0.00,,,0.02,0,weatherlink.com 1.10,2017-06-27 06:59:00,
2017-06-27 03:14:00,57.1,56.0,29.96,NW,307,0.0,0.0,96,0.00,,,0.02,0,weatherlink.com 1.10,2017-06-27 07:14:00,
2017-06-27 03:29:00,57.4,57.0,29.96,NW,307,0.0,1.0,97,0.00,,,0.02,0,weatherlink.com 1.10,2017-06-27 07:29:00,
2017-06-27 03:44:00,57.3,56.0,29.96,WSW,257,0.0,2.0,96,0.00,,,0.02,0,weatherlink.com 1.10,2017-06-27 07:44:00,
2017-06-27 03:59:00,57.2,56.0,29.96,WSW,257,1.0,2.0,96,0.00,,,0.02,0,weatherlink.com 1.10,2017-06-27 07:59:00,
2017-06-27 04:14:00,57.3,56.0,29.95,WSW,257,0.0,0.0,96,0.01,,,0.03,0,weatherlink.com 1.10,2017-06-27 08:14:00,
2017-06-27 04:29:00,57.0,56.0,29.96,WSW,257,0.0,0.0,97,0.01,,,0.03,0,weatherlink.com 1.10,2017-06-27 08:29:00,
2017-06-27 04:44:00,56.7,56.0,29.95,SSW,193,0.0,0.0,96,0.01,,,0.03,0,weatherlink.com 1.10,2017-06-27 08:44:00,
2017-06-27 04:59:00,56.3,56.0,29.95,SSW,193,0.0,0.0,97,0.01,,,0.03,0,weatherlink.com 1.10,2017-06-27 08:59:00,
2017-06-27 05:14:00,56.5,56.0,29.95,SSW,193,0.0,0.0,97,0.00,,,0.03,0,weatherlink.com 1.10,2017-06-27 09:14:00,
2017-06-27 05:29:00,56.5,56.0,29.96,South,183,2.0,3.0,97,0.00,,,0.03,9,weatherlink.com 1.10,2017-06-27 09:29:00,
2017-06-27 05:44:00,56.6,56.0,29.96,SSW,197,1.0,3.0,97,0.01,,,0.04,19,weatherlink.com 1.10,2017-06-27 09:44:00,
2017-06-27 05:59:00,56.8,56.0,29.96,SSW,197,2.0,2.0,97,0.01,,,0.04,40,weatherlink.com 1.10,2017-06-27 09:59:00,
2017-06-27 06:14:00,57.2,56.0,29.96,SSW,197,0.0,1.0,97,0.01,,,0.04,33,weatherlink.com 1.10,2017-06-27 10:14:00,
2017-06-27 06:29:00,57.4,57.0,29.96,SSW,197,0.0,0.0,97,0.01,,,0.04,39,weatherlink.com 1.10,2017-06-27 10:29:00,
2017-06-27 06:44:00,57.5,57.0,29.96,North,4,0.0,0.0,97,0.00,,,0.04,67,weatherlink.com 1.10,2017-06-27 10:44:00,
2017-06-27 06:59:00,57.6,57.0,29.97,North,4,0.0,0.0,97,0.00,,,0.04,67,weatherlink.com 1.10,2017-06-27 10:59:00,
2017-06-27 07:16:00,57.8,57.0,29.98,West,261,0.0,0.0,97,0.00,,,0.04,76,weatherlink.com 1.10,2017-06-27 11:16:00,
2017-06-27 07:29:00,58.3,58.0,29.98,West,261,0.0,0.0,97,0.00,,,0.04,109,weatherlink.com 1.10,2017-06-27 11:29:00,
2017-06-27 07:45:00,58.4,58.0,29.98,West,260,0.0,0.0,97,0.00,,,0.04,81,weatherlink.com 1.10,2017-06-27 11:45:00,
2017-06-27 07:59:00,58.5,57.0,29.98,SW,225,1.0,3.0,96,0.00,,,0.04,104,weatherlink.com 1.10,2017-06-27 11:59:00,
2017-06-27 08:14:00,58.7,58.0,29.99,SW,226,1.0,4.0,96,0.00,,,0.04,70,weatherlink.com 1.10,2017-06-27 12:14:00,
2017-06-27 08:29:00,58.7,58.0,29.99,SW,218,1.0,4.0,96,0.00,,,0.04,77,weatherlink.com 1.10,2017-06-27 12:29:00,
2017-06-27 08:44:00,59.2,58.0,30.00,SSW,208,4.0,4.0,95,0.00,,,0.04,165,weatherlink.com 1.10,2017-06-27 12:44:00,
2017-06-27 08:59:00,59.4,58.0,30.00,SW,224,2.0,4.0,95,0.00,,,0.04,178,weatherlink.com 1.10,2017-06-27 12:59:00,
2017-06-27 09:14:00,60.1,59.0,30.00,SSW,206,1.0,3.0,95,0.00,,,0.04,225,weatherlink.com 1.10,2017-06-27 13:14:00,
2017-06-27 09:29:00,60.6,59.0,29.99,SSW,195,2.0,3.0,94,0.00,,,0.04,248,weatherlink.com 1.10,2017-06-27 13:29:00,
2017-06-27 09:44:00,61.1,59.0,29.98,SSE,156,3.0,5.0,93,0.00,,,0.04,269,weatherlink.com 1.10,2017-06-27 13:44:00,
2017-06-27 10:00:00,61.5,59.0,29.98,SSW,206,4.0,6.0,91,0.00,,,0.04,213,weatherlink.com 1.10,2017-06-27 14:00:00,
2017-06-27 10:15:00,61.8,59.0,29.96,WSW,242,1.0,5.0,90,0.00,,,0.04,230,weatherlink.com 1.10,2017-06-27 14:15:00,
2017-06-27 10:30:00,62.5,59.0,29.96,SSW,193,1.0,4.0,89,0.00,,,0.04,265,weatherlink.com 1.10,2017-06-27 14:30:00,
2017-06-27 10:45:00,63.0,60.0,29.96,SW,225,2.0,3.0,89,0.00,,,0.04,193,weatherlink.com 1.10,2017-06-27 14:45:00,
2017-06-27 11:00:00,63.7,60.0,29.95,South,185,4.0,7.0,87,0.00,,,0.04,346,weatherlink.com 1.10,2017-06-27 15:00:00,
2017-06-27 11:15:00,64.2,59.0,29.95,WSW,244,7.0,7.0,84,0.00,,,0.04,341,weatherlink.com 1.10,2017-06-27 15:15:00,
2017-06-27 11:30:00,64.5,59.0,29.95,SE,145,5.0,9.0,82,0.00,,,0.04,638,weatherlink.com 1.10,2017-06-27 15:30:00,
2017-06-27 11:45:00,64.8,59.0,29.94,WSW,251,2.0,7.0,80,0.00,,,0.04,446,weatherlink.com 1.10,2017-06-27 15:45:00,
2017-06-27 12:00:00,65.2,59.0,29.93,SSE,161,2.0,6.0,80,0.00,,,0.04,332,weatherlink.com 1.10,2017-06-27 16:00:00,
2017-06-27 12:15:00,65.4,59.0,29.93,South,170,4.0,6.0,79,0.00,,,0.04,241,weatherlink.com 1.10,2017-06-27 16:15:00,
2017-06-27 12:30:00,65.0,59.0,29.93,SSW,201,2.0,4.0,81,0.00,,,0.04,142,weatherlink.com 1.10,2017-06-27 16:30:00,
2017-06-27 12:45:00,64.7,59.0,29.92,SW,216,1.0,5.0,82,0.00,,,0.04,128,weatherlink.com 1.10,2017-06-27 16:45:00,
2017-06-27 13:00:00,64.8,59.0,29.92,SSW,212,1.0,5.0,82,0.00,,,0.04,193,weatherlink.com 1.10,2017-06-27 17:00:00,
2017-06-27 13:15:00,65.3,60.0,29.91,SW,215,3.0,4.0,82,0.00,,,0.04,359,weatherlink.com 1.10,2017-06-27 17:15:00,
2017-06-27 13:30:00,66.9,61.0,29.90,SSE,155,3.0,4.0,82,0.00,,,0.04,468,weatherlink.com 1.10,2017-06-27 17:30:00,
2017-06-27 13:45:00,67.6,61.0,29.89,SE,127,2.0,6.0,79,0.00,,,0.04,420,weatherlink.com 1.10,2017-06-27 17:45:00,
2017-06-27 14:00:00,68.0,62.0,29.88,SE,141,5.0,7.0,80,0.00,,,0.04,272,weatherlink.com 1.10,2017-06-27 18:00:00,
2017-06-27 14:15:00,68.4,62.0,29.88,WSW,237,0.0,5.0,79,0.00,,,0.04,234,weatherlink.com 1.10,2017-06-27 18:15:00,
2017-06-27 14:32:00,71.6,64.0,29.87,NNW,341,3.0,4.0,77,0.00,,,0.04,373,weatherlink.com 1.10,2017-06-27 18:32:00,
2017-06-27 14:45:00,72.2,64.0,29.87,North,354,4.0,9.0,74,0.00,,,0.04,188,weatherlink.com 1.10,2017-06-27 18:45:00,
2017-06-27 15:00:00,67.7,61.0,29.87,North,4,6.0,10.0,80,0.00,,,0.04,128,weatherlink.com 1.10,2017-06-27 19:00:00,
2017-06-27 15:15:00,66.3,61.0,29.86,NNE,21,6.0,6.0,84,0.00,,,0.04,32,weatherlink.com 1.10,2017-06-27 19:15:00,
2017-06-27 15:30:00,64.6,60.0,29.86,North,359,5.0,12.0,85,0.00,,,0.04,165,weatherlink.com 1.10,2017-06-27 19:30:00,
2017-06-27 15:45:00,63.2,59.0,29.86,ENE,65,10.0,11.0,85,0.00,,,0.04,28,weatherlink.com 1.10,2017-06-27 19:45:00,
2017-06-27 16:00:00,60.4,57.0,29.87,NNE,14,2.0,10.0,88,0.00,,,0.04,12,weatherlink.com 1.10,2017-06-27 20:00:00,
2017-06-27 16:15:00,58.6,56.0,29.87,NW,314,3.0,22.0,91,0.01,,,0.05,23,weatherlink.com 1.10,2017-06-27 20:15:00,
2017-06-27 16:30:00,57.5,56.0,29.86,North,8,4.0,9.0,93,0.01,,,0.05,65,weatherlink.com 1.10,2017-06-27 20:30:00,
2017-06-27 16:45:00,57.2,56.0,29.86,North,4,3.0,6.0,94,0.02,,,0.06,44,weatherlink.com 1.10,2017-06-27 20:45:00,
2017-06-27 17:00:00,57.3,56.0,29.87,NW,315,2.0,5.0,94,0.02,,,0.06,58,weatherlink.com 1.10,2017-06-27 21:00:00,
2017-06-27 17:15:00,58.0,57.0,29.87,NE,35,1.0,7.0,95,0.02,,,0.07,202,weatherlink.com 1.10,2017-06-27 21:15:00,
2017-06-27 17:30:00,58.8,57.0,29.87,NE,37,3.0,6.0,94,0.02,,,0.07,155,weatherlink.com 1.10,2017-06-27 21:30:00,
2017-06-27 17:46:00,59.0,57.0,29.87,NE,56,1.0,2.0,94,0.02,,,0.08,84,weatherlink.com 1.10,2017-06-27 21:46:00,
2017-06-27 18:00:00,59.8,58.0,29.86,SE,127,1.0,4.0,94,0.02,,,0.08,70,weatherlink.com 1.10,2017-06-27 22:00:00,
2017-06-27 18:15:00,59.7,58.0,29.88,ESE,122,0.0,2.0,94,0.01,,,0.08,63,weatherlink.com 1.10,2017-06-27 22:15:00,
2017-06-27 18:31:00,60.3,59.0,29.89,ESE,120,0.0,3.0,94,0.02,,,0.09,69,weatherlink.com 1.10,2017-06-27 22:31:00,
2017-06-27 18:45:00,60.5,59.0,29.89,SW,216,0.0,2.0,94,0.01,,,0.09,49,weatherlink.com 1.10,2017-06-27 22:45:00,
2017-06-27 19:01:00,60.0,59.0,29.89,East,83,0.0,3.0,95,0.02,,,0.10,49,weatherlink.com 1.10,2017-06-27 23:01:00,
2017-06-27 19:15:00,59.7,58.0,29.89,WNW,293,1.0,4.0,94,0.02,,,0.10,28,weatherlink.com 1.10,2017-06-27 23:15:00,
2017-06-27 19:30:00,58.9,57.0,29.90,West,260,2.0,2.0,94,0.01,,,0.10,18,weatherlink.com 1.10,2017-06-27 23:30:00,
2017-06-27 19:46:00,58.7,57.0,29.89,SSE,149,2.0,5.0,94,0.02,,,0.11,26,weatherlink.com 1.10,2017-06-27 23:46:00,
2017-06-27 20:00:00,58.6,57.0,29.88,SE,143,1.0,2.0,94,0.01,,,0.11,12,weatherlink.com 1.10,2017-06-28 00:00:00,
2017-06-27 20:16:00,57.3,56.0,29.89,NW,308,2.0,2.0,95,0.02,,,0.12,9,weatherlink.com 1.10,2017-06-28 00:16:00,
2017-06-27 20:30:00,56.3,55.0,29.90,West,264,0.0,3.0,95,0.02,,,0.12,5,weatherlink.com 1.10,2017-06-28 00:30:00,